Find Starlink 30524

NORAD ID: 57965 Int'l Des: 2023-151 Owner: SPXS Country: US Constellation: starlink operational
LEOCIRCULAR

实时位置

正在加载3D地球...

关于 Starlink 30524

正在加载描述...

即将过境

Passes for default location (London). Set your location on the main map for personalized predictions.

高度历史

Loading altitude history...

两行轨道根数

1 57965U 23151B 26123.74359733 .00004699 00000-0 18017-3 0 9997
2 57965 43.0018 25.3157 0001586 271.3079 88.7591 15.27581825144182
Epoch: May 3, 2026 • Age: 7 hours

当前状态

高度 485.0 km
速度 7.63 km/s
星下点 33.12°N, 72.45°W
发射日期 Sep 30, 2023
运行时间 2.5 years
类型 internet

技术详情

分类 Payload
质量 730.00 kg
干质量 700.00 kg
总质量 730.00 kg
长度 0.30 m
直径 4.10 m
跨度 29.00 m
形状 Box + pan
制造商 SPXS
平台类型 Starlink V2M
阶段状态 In Orbit
所有者/国家 SPXS/US

Most Searched